Location: Newark
(34.9756°N, 138.3828°E)
Time: 11:19:25
(UTC+00:00)

N. Korean satellite - Pass Details

Date: 14 December 2019
Orbit: 454 x 508 km, 97.2° (Epoch: 17 January)

Event Time Altitude Azimuth Distance (km) Brightness Sun altitude
Rises 20:37:11 0° 9° (N) 2,512 10.1 -13.8°
Reaches altitude 10° 20:39:15 10° 9° (N) 1,623 9.1 -13.4°
Maximum altitude 20:42:43 79° 283° (WNW) 474 6.3 -12.8°
Drops below altitude 10° 20:46:08 10° 196° (SSW) 1,590 9.2 -12.1°
Sets 20:48:08 0° 195° (SSW) 2,455 10.2 -11.7°
